Location: Cormont
(50.5693°N, 1.7416°E)
Time: 03:16:27
(UTC+00:00)

ATLAS 5 CENTAUR R/B - Pass Details

Date: 21 October 2019
Orbit: 557 x 1102 km, 63.4° (Epoch: 11 November)

Event Time Altitude Azimuth Distance (km) Brightness Sun altitude
Rises 20:14:33 0° 300° (WNW) 3,023 6.2 -32.6°
Reaches altitude 10° 20:17:19 10° 317° (NW) 2,197 5.1 -33.0°
Enters shadow 20:20:33 20° 358° (N) 1,706 4.0 -33.5°
